Regional Weather Roundup
Issued by NWS

Home | Current Version | Previous Version | Text Only | Print | Product List | Glossary On
Versions: 1 2 3 4 5 6 7 8 9 10 11 12 13 14 15 16 17 18 19 20 21 22 23 24 25 26 27 28 29 30 31 32 33 34 35 36 37 38 39 40 41 42 43 44 45 46 47 48 49 50
000
ASUS43 KMKX 031200
RWRWI

WISCONSIN REGIONAL WEATHER ROUNDUP
NATIONAL WEATHER SERVICE MILWAUKEE/SULLIVAN WI
700 AM CDT TUE MAY 03 2016

NOTE: "FAIR" INDICATES FEW OR NO CLOUDS BELOW 12,000 FEET WITH NO
SIGNIFICANT WEATHER AND/OR OBSTRUCTIONS TO VISIBILITY.

WIZ001-002-006>008-014>016-023>028-031300-
NORTHWEST WISCONSIN

CITY           SKY/WX    TMP DP  RH WIND       PRES   REMARKS
SUPERIOR ARPT  PTSUNNY   44  35  69 SW8       29.83S
ASHLAND        CLOUDY    51  33  50 SW9       29.81F
6HR MIN TEMP:  35; 6HR MAX TEMP:  51;

HAYWARD        MOSUNNY   42  34  73 SW5       29.87F
6HR MIN TEMP:  33; 6HR MAX TEMP:  42;

SIREN          CLOUDY    49  35  57 W7        29.89S
CUMBERLAND     CLOUDY    45  34  65 SW6       29.91R
RICE LAKE      CLOUDY    41  37  87 NW5       29.93R
CHETEK         CLOUDY    41  34  75 S3        29.91S
LADYSMITH      CLOUDY    37  35  92 CALM      29.91F
EAU CLAIRE     NOT AVBL
MENOMONIE      SUNNY     40  37  91 CALM      29.93S
NEW RICHMOND   CLOUDY    43  37  77 SW3       29.93S
OSCEOLA        PTCLDY    40  40  99 CALM      29.95R
$$

WIZ003>005-009-010-017-018-031300-
NORTH CENTRAL WISCONSIN

CITY           SKY/WX    TMP DP  RH WIND       PRES   REMARKS
MANITOWISH WTR CLOUDY    37  37 100 SW5       29.84F WCI  34
ARBOR VITAE    MOSUNNY   44  33  67 W5        29.86S
WOODRUFF       MOSUNNY   44  33  67 W5        29.86S
RHINELANDER    SUNNY     42  34  73 W5        29.87F
6HR MIN TEMP:  32; 6HR MAX TEMP:  42;

EAGLE RIVER    CLOUDY    39  35  86 W7        29.85S WCI  34
LAND O LAKES   CLOUDY    38  37  94 W5        29.85F WCI  34
PHILLIPS       MOSUNNY   34  33  96 CALM      29.88S
TOMAHAWK       SUNNY     32  31  93 CALM      29.89S
MEDFORD        SUNNY     44  35  70 W5        29.90S
MERRILL        SUNNY     34  30  86 CALM      29.90F
$$

WIZ029-030-035-036-043>047-031300-
CENTRAL WISCONSIN

CITY           SKY/WX    TMP DP  RH WIND       PRES   REMARKS
WAUSAU         SUNNY     49  36  61 NW6       29.88F
6HR MIN TEMP:  42; 6HR MAX TEMP:  49;

MOSINEE        SUNNY     45  36  70 W5        29.91F
MARSHFIELD     SUNNY     46  36  68 W7        29.91S
6HR MIN TEMP:  43; 6HR MAX TEMP:  49;

STEVENS POINT  SUNNY     33  31  94 CALM      29.93S
WAUPACA        SUNNY     42  35  74 CALM      29.92S
WAUTOMA        SUNNY     38  36  92 MISG        N/A
6HR MIN TEMP:  34; 6HR MAX TEMP:  40;

WISC RAPIDS    SUNNY     39  36  89 SW3       29.94R
6HR MIN TEMP:  35; 6HR MAX TEMP:  41;

CAMP DOUGLAS   NOT AVBL
$$

WIZ011>013-019>022-031-037>040-048>050-031300-
NORTHEAST WISCONSIN

CITY           SKY/WX    TMP DP  RH WIND       PRES   REMARKS
ANTIGO         SUNNY     37  34  87 CALM      29.89F
SHAWANO        SUNNY     43  35  73 SW3       29.89S
OCONTO         SUNNY     42  38  85 SW3       29.87S
STURGEON BAY   SUNNY     48  36  61 SW8       29.89S
6HR MIN TEMP:  43; 6HR MAX TEMP:  48;

GREEN BAY      SUNNY     46  38  73 SW7       29.89F
6HR MIN TEMP:  43; 6HR MAX TEMP:  47;

MANITOWOC      NOT AVBL
APPLETON       MOSUNNY   46  36  66 W9        29.89S
CLINTONVILLE   SUNNY     39  34  81 CALM      29.89F
OSHKOSH        SUNNY     49  35  58 W8        29.91S
6HR MIN TEMP:  45; 6HR MAX TEMP:  49;

$$

WIZ032>034-041-042-053>061-031300-
SOUTHWEST WISCONSIN

CITY           SKY/WX    TMP DP  RH WIND       PRES   REMARKS
LA CROSSE      SUNNY     48  42  80 S7        29.96S
6HR MIN TEMP:  43; 6HR MAX TEMP:  51;

SPARTA         SUNNY     32  31  96 CALM      29.96S
VIROQUA        SUNNY     43  38  82 W7        29.97S
BOSCOBEL       SUNNY     42  40  92 SW5       29.99S
6HR MIN TEMP:  37; 6HR MAX TEMP:  45;

PRAIRIE DU CHI SUNNY     42  37  80 CALM      29.99S
PLATTEVILLE    SUNNY     41  39  92 W5        29.99R
$$

WIZ056-057-062-063-064-067-068-031300-
SOUTH CENTRAL WISCONSIN

CITY           SKY/WX    TMP DP  RH WIND       PRES   REMARKS
REEDSBURG      SUNNY     37  37  99 CALM      29.95S
BARABOO/DELLS  SUNNY     42  36  76 SW3       29.95S
LONE ROCK      NOT AVBL
MINERAL POINT  SUNNY     45  39  81 W3        29.97S
MADISON        SUNNY     41  37  86 CALM      29.95S
6HR MIN TEMP:  38; 6HR MAX TEMP:  48;

MIDDLETON      SUNNY     45  38  76 W5        29.97R
WATERTOWN      SUNNY     37  35  94 CALM      29.95R
MONROE         SUNNY     45  37  76 W12       29.96S
JANESVILLE     MOSUNNY   37  37 100 CALM      29.96S
$$

WIZ051-052-058>065-066-070>072-031300-
SOUTHEAST WISCONSIN

CITY           SKY/WX    TMP DP  RH WIND       PRES   REMARKS
MILWAUKEE      MOSUNNY   49  33  54 W8        29.95S
6HR MIN TEMP:  39; 6HR MAX TEMP:  49;

WAUKESHA       SUNNY     39  32  75 CALM      29.96S
MILWAUKEE/TIMM SUNNY     43  30  61 SW5       29.95F
RACINE         MOSUNNY   48  32  53 W8        29.97S
6HR MIN TEMP:  40; 6HR MAX TEMP:  48;

BURLINGTON     PTSUNNY   36  35  96 CALM      29.96S
KENOSHA        CLOUDY    45  37  73 W6        29.96S
6HR MIN TEMP:  37; 6HR MAX TEMP:  45;

FOND DU LAC    SUNNY     46  36  68 SW6       29.93S
6HR MIN TEMP:  40; 6HR MAX TEMP:  46;

SHEBOYGAN      SUNNY     46  37  71 SW5       29.92S
6HR MIN TEMP:  39; 6HR MAX TEMP:  46;

WEST BEND      SUNNY     43  34  70 CALM      29.94S
JUNEAU         SUNNY     39  33  79 S3        29.95S
$$

LSZ147-162-031300-
LAKE SUPERIOR

STATION/POSITION TIME  TEMP    WIND        PRES    WAVE
                       AIR SEA DIR/SP/G            HT/PER
                 (UTC) (F)     (DEG/KT/KT) (MB)    (FT/S)
W MID LAKE BUOY  1050   39 37  230/  6/  8 1008.5F   0
DEVILS ISLAND    1100   48     230/ 18/ 20 1008.7F
SAXON HARBOR     1140   55     220/ 12/ 19 1008.8F
$$

LMZ867-665-643>646-031300-
LAKE MICHIGAN

STATION/POSITION TIME  TEMP    WIND        PRES    WAVE
                       AIR SEA DIR/SP/G            HT/PER
                 (UTC) (F)     (DEG/KT/KT) (MB)    (FT/S)
CHAMBERS ISLAND  1100   47     200/  6/ 11 1011.2F
N MID LAKE BUOY  1050   42 38  180/ 10/ 12 1011.2F   0
NORTHPORT PIER   1100   46     220/  4/  9 1010.8F
ALGOMA LAKESHORE 1115          260/  7/ 10   N/A
KEWAUNEE LAKESHO 1100   44     300/  4/  7 1011.6F
SHEBOYGAN LAKESH 1100   47     220/  7/  8 1013.8F
PORT WASHINGTON  1100   48     260/  6/ 10 1014.6
S MID LAKE BUOY  1050   42 41  230/  4/  4 1014.5F   0
KENOSHA   LAKESH 1100   47     260/  8/ 10 1014.6S
$$

TC  - TEMPERATURE IN CELSIUS
VSB - VISIBILITY IN STATUTE MILES
WCI - WIND CHILL INDEX
HX  - HEAT INDEX





USA.gov is the U.S. government's official web portal to all federal, state and local government web resources and services.